Regional Weather Roundup
Issued by NWS

Home | Current Version | Previous Version | Graphics & Text | Print | Product List | Glossary On
Versions: 1 2 3 4 5 6 7 8 9 10 11 12 13 14 15 16 17 18 19 20 21 22 23 24 25 26 27 28 29 30 31 32 33 34 35 36 37 38 39 40 41 42 43 44 45 46 47 48 49 50
233
ASUS44 KJAN 202303
RWRMS

MISSISSIPPI HOURLY WEATHER ROUNDUP
NATIONAL WEATHER SERVICE JACKSON MS
600 PM CDT SAT SEP 20 2014

NOTE: "FAIR: INDICATES FEW OR NO CLOUDS BELOW 12,000 FEET WITH NO
SIGNIFICANT WEATHER AND/OR OBSTRUCTIONS TO VISIBILITY.

MSZ001>002-007>008-010>013-018>021-025>028-034>036-210000-
NORTHWEST MISSISSIPPI

CITY           SKY/WX    TMP DP  RH WIND       PRES   REMARKS
CLARKSDALE     FAIR      86  68  54 CALM      29.97S
CLEVELAND      FAIR      87  67  50 E3        29.95S HX  90
GREENWOOD      SUNNY     88  66  48 E6        29.96S HX  90
GREENVILLE     MOSUNNY   88  63  43 CALM      29.94S
GRENADA        FAIR      84  66  54 CALM      29.97F
OLIVE BRANCH   PTSUNNY   84  66  54 S5        29.98F
OXFORD         FAIR      81  68  65 SE6       30.00F
TUNICA         PTCLDY    86  68  54 SE3       29.97F
$$

MSZ003>006-009-014>017-022>024-029>033-037>039-210000-
NORTHEAST MISSISSIPPI

CITY           SKY/WX    TMP DP  RH WIND       PRES   REMARKS
COLUMBUS AFB   SUNNY     86  63  47 NE3       29.98S
CORINTH        FAIR      84  66  54 CALM      29.98F
GOLDN TRIANGLE MOSUNNY   88  66  48 CALM      30.00R HX  90
STARKVILLE     FAIR      84  63  48 E6        29.99S
TUPELO         SUNNY     85  64  49 SE5       29.98F
$$

MSZ040-058-210000-
CENTRAL MISSISSIPPI

CITY           SKY/WX    TMP DP  RH WIND       PRES   REMARKS
JACKSON INTL   MOSUNNY   86  65  49 E7        29.96F
JACKSON HAWKNS SUNNY     87  65  47 SE5       29.96F
MERIDIAN KEY   SUNNY     85  59  41 E8        29.97S
MERIDIAN NAS   SUNNY     86  60  41 E5        29.98S
RAYMOND        FAIR      90  82  79 E6        29.96F HX 111
VICKSBURG      SUNNY     89  65  44 NE7       29.94F HX  91
$$

MSZ059>079-210000-
SOUTH MISSISSIPPI

CITY           SKY/WX    TMP DP  RH WIND       PRES   REMARKS
BROOKHAVEN     FAIR      86  66  51 NE3       29.98S
COLUMBIA       FAIR      86  68  54 E3        29.94F
HATTIESBURG    SUNNY     86  66  51 E5        29.96S
MCCOMB         SUNNY     85  65  51 E5        29.96S
NATCHEZ        SUNNY     86  68  54 E5        29.95F
PINE BELT      MOSUNNY  N/A N/A N/A NE7       29.97S
$$

MSZ080>082-210000-
COASTAL MISSISSIPPI

CITY           SKY/WX    TMP DP  RH WIND       PRES   REMARKS
BAY ST LOUIS   MOSUNNY   84  68  58 SE6       29.94S
BILOXI         SUNNY     85  67  54 E12       29.94R
PASCAGOULA     SUNNY     82  68  62 E7        29.95S
GULFPORT       SUNNY     85  65  51 NE8       29.93S
$$



USA.gov is the U.S. government's official web portal to all federal, state and local government web resources and services.